Fort Morgan, CO

6:22 AM MDT on May 25, 2017 (GMT -0600)
Fort Morgan

Weather History for KFMM - April, 2013

Change the Weather History Date:

Tuesday, April 9, 2013

  Actual Average (KAKO) Record (KAKO)
Temperature  
Mean Temperature 18 °F -  
Max Temperature 24 °F 58 °F 83 °F (1977)
Min Temperature 9 °F 29 °F 7 °F (1989)
Degree Days  
Heating Degree Days 48    
Moisture  
Dew Point 12 °F    
Average Humidity 84    
Maximum Humidity 89    
Minimum Humidity 79    
Precipitation  
Precipitation 0.00 in - - ()
Sea Level Pressure  
Sea Level Pressure 30.04 in    
Wind  
Wind Speed 27 mph (North)    
Max Wind Speed 37 mph    
Max Gust Speed 50 mph    
Visibility 4 miles    
Events      
Averages and records for this station are not official NWS values.
T = Trace of Precipitation, MM = Missing Value Source: NWS Daily Summary

Daily Weather History Graph

Daily Weather History Graph

Search for Another Location

Airport or City:

Trip Planner

Search our weather history database for the weather conditions in past years. The results will help you decide how hot, cold, wet, or windy it might be!

Date:

Astronomy

Apr. 09, 2013 Rise Set
Actual Time 6:25 AM MDT 7:28 PM MDT
Civil Twilight 5:57 AM MDT 7:56 PM MDT
Nautical Twilight 5:24 AM MDT 8:29 PM MDT
Astronomical Twilight 4:50 AM MDT 9:04 PM MDT
Moon 5:49 AM MDT (4/9) 7:06 PM MDT (4/9)
Length of Visible Light 13h 58m
Length of Day
13h 02m
Waning Crescent, 0% of the Moon is Illuminated
Apr 9
Waning Crescent
Apr 10
New
Apr 18
First Quarter
Apr 25
Full
May 2
Last Quarter

Hourly Weather History & Observations

Time (MDT) Temp. Windchill Dew Point Humidity Pressure Visibility Wind Dir Wind Speed Gust Speed Precip Events Conditions
12:15 AM 24.4 °F 5.9 °F 20.8 °F 86% 29.75 in 10.0 mi North 36.8 mph 49.5 mph N/A   Overcast
12:35 AM 23.5 °F 5.9 °F 20.1 °F 87% 29.77 in 10.0 mi North 31.1 mph 46.0 mph N/A   Overcast
12:55 AM 22.5 °F 5.5 °F 18.5 °F 85% 29.81 in 10.0 mi North 26.5 mph 43.7 mph N/A   Overcast
1:15 AM 21.9 °F 4.2 °F 17.4 °F 83% 29.85 in 10.0 mi North 28.8 mph 39.1 mph N/A   Overcast
1:35 AM 21.2 °F 3.5 °F 17.6 °F 86% 29.88 in 1.8 mi NNW 27.6 mph 32.2 mph N/A   Overcast
1:55 AM 20.7 °F 4.5 °F 17.4 °F 87% 29.90 in 2.0 mi NNW 21.9 mph 28.8 mph N/A   Overcast
2:15 AM 19.9 °F 1.8 °F 16.7 °F 87% 29.90 in 2.0 mi NNW 27.6 mph 36.8 mph N/A   Overcast
2:35 AM 19.2 °F -0.8 °F 16.2 °F 88% 29.88 in 1.8 mi NNW 34.5 mph 43.7 mph N/A   Overcast
2:55 AM 18.5 °F -1.5 °F 15.4 °F 88% 29.90 in 2.5 mi North 33.4 mph 40.3 mph N/A   Overcast
3:15 AM 18.1 °F -2.3 °F 14.0 °F 84% 29.90 in 5.0 mi North 34.5 mph 44.9 mph N/A   Overcast
3:35 AM 18.3 °F -1.5 °F 14.2 °F 84% 29.92 in 5.0 mi North 32.2 mph 41.4 mph N/A   Overcast
3:55 AM 17.6 °F -3.6 °F 13.3 °F 83% 29.92 in 5.0 mi North 36.8 mph 44.9 mph N/A   Overcast
4:15 AM 16.9 °F -4.3 °F 12.4 °F 82% 29.96 in 3.0 mi North 35.7 mph 44.9 mph N/A   Overcast
4:35 AM 17.4 °F -2.8 °F 13.3 °F 84% 29.94 in 5.0 mi North 32.2 mph 40.3 mph N/A   Overcast
4:55 AM 17.2 °F -3.0 °F 13.6 °F 86% 29.94 in 4.0 mi North 32.2 mph 40.3 mph N/A   Overcast
5:15 AM 16.3 °F -3.0 °F 13.3 °F 88% 29.95 in 3.0 mi North 27.6 mph 39.1 mph N/A   Overcast
5:35 AM 15.6 °F -6.3 °F 11.7 °F 84% 29.94 in 5.0 mi North 36.8 mph 47.2 mph N/A   Overcast
5:55 AM 16.0 °F -4.4 °F 12.4 °F 86% 29.95 in 5.0 mi North 31.1 mph 38.0 mph N/A   Overcast
6:15 AM 15.3 °F -6.3 °F 11.3 °F 84% 29.94 in 10.0 mi North 34.5 mph 42.6 mph N/A   Overcast
6:35 AM 15.6 °F -6.3 °F 11.3 °F 83% 29.94 in 7.0 mi North 36.8 mph 43.7 mph N/A   Overcast
6:55 AM 15.6 °F -4.6 °F 11.3 °F 83% 30.00 in 10.0 mi North 29.9 mph 35.7 mph N/A   Overcast
7:15 AM 14.7 °F -6.4 °F 10.0 °F 82% 30.01 in 5.0 mi North 32.2 mph 40.3 mph N/A   Overcast
7:35 AM 15.1 °F -6.5 °F 10.2 °F 81% 30.01 in 5.0 mi North 34.5 mph 40.3 mph N/A   Overcast
7:55 AM 14.9 °F -5.9 °F 10.2 °F 82% 30.02 in 4.0 mi North 31.1 mph 40.3 mph N/A   Overcast
8:15 AM 14.9 °F -4.9 °F 10.6 °F 83% 30.01 in 3.0 mi North 27.6 mph 38.0 mph N/A   Overcast
8:35 AM 14.9 °F -4.9 °F 10.9 °F 84% 30.02 in 2.5 mi North 27.6 mph 36.8 mph N/A   Overcast
8:55 AM 14.7 °F -6.7 °F 10.0 °F 82% 30.03 in 1.8 mi North 33.4 mph 43.7 mph N/A   Overcast
9:15 AM 15.1 °F -4.4 °F 11.7 °F 86% 30.03 in 1.8 mi North 26.5 mph 31.1 mph N/A   Overcast
9:35 AM 15.8 °F -2.7 °F 11.8 °F 84% 30.03 in 2.0 mi North 24.2 mph 31.1 mph N/A   Overcast
9:55 AM 15.4 °F -3.9 °F 11.8 °F 86% 30.05 in 1.5 mi North 26.5 mph 33.4 mph N/A   Overcast
10:15 AM 14.9 °F -4.3 °F 9.7 °F 80% 30.06 in 5.0 mi North 25.3 mph 32.2 mph N/A   Overcast
10:35 AM 15.1 °F -3.3 °F 11.1 °F 84% 30.09 in 1.8 mi North 23.0 mph 28.8 mph N/A   Overcast
10:55 AM 15.4 °F -2.0 °F 10.9 °F 82% 30.07 in 1.5 mi North 20.7 mph 28.8 mph N/A   Overcast
11:15 AM 16.2 °F -2.6 °F 12.0 °F 84% 30.06 in 1.0 mi North 25.3 mph 32.2 mph N/A   Overcast
11:35 AM 16.0 °F -3.2 °F 12.6 °F 86% 30.07 in 0.8 mi North 26.5 mph 31.1 mph N/A   Overcast
11:55 AM 15.8 °F -1.1 °F 12.0 °F 85% 30.08 in 0.8 mi North 19.6 mph - N/A   Overcast
12:15 PM 16.3 °F -2.0 °F 12.7 °F 86% 30.07 in 0.5 mi North 24.2 mph - N/A   Overcast
12:35 PM 16.7 °F -2.2 °F 12.7 °F 84% 30.06 in 0.5 mi North 26.5 mph 31.1 mph N/A   Overcast
12:55 PM 16.3 °F -1.6 °F 12.0 °F 83% 30.08 in 0.8 mi North 23.0 mph 29.9 mph N/A   Overcast
1:15 PM 16.2 °F -1.8 °F 11.1 °F 81% 30.08 in 2.5 mi North 23.0 mph 31.1 mph N/A   Overcast
1:35 PM 15.8 °F -2.7 °F 11.5 °F 83% 30.08 in - North 24.2 mph 29.9 mph N/A   Overcast
1:55 PM 15.4 °F -3.5 °F 10.6 °F 81% 30.08 in - North 25.3 mph 31.1 mph N/A   Unknown
2:15 PM 15.1 °F -3.7 °F 10.4 °F 82% 30.07 in - North 24.2 mph 27.6 mph N/A   Overcast
2:35 PM 15.3 °F -3.0 °F 11.1 °F 84% 30.09 in 1.0 mi North 23.0 mph 29.9 mph N/A   Overcast
2:55 PM 15.3 °F -3.4 °F 11.7 °F 86% 30.07 in 0.5 mi North 24.2 mph - N/A   Overcast
3:15 PM 15.3 °F -4.1 °F 11.8 °F 86% 30.06 in 0.2 mi North 26.5 mph 33.4 mph N/A   Overcast
3:35 PM 18.1 °F 1.2 °F 12.7 °F 79% 30.08 in 0.5 mi North 21.9 mph 27.6 mph N/A   Overcast
3:55 PM 17.6 °F -0.3 °F 12.6 °F 81% 30.09 in 0.8 mi NNW 24.2 mph - N/A   Overcast
4:15 PM 17.6 °F 1.7 °F 12.0 °F 79% 30.11 in 1.2 mi NNW 18.4 mph - N/A   Overcast
4:35 PM 16.7 °F -0.7 °F 11.7 °F 81% 30.11 in 1.8 mi NNW 21.9 mph - N/A   Overcast
4:55 PM 15.8 °F -3.1 °F 11.1 °F 82% 30.10 in 1.2 mi North 25.3 mph - N/A   Overcast
5:15 PM 15.8 °F -3.7 °F 10.9 °F 81% 30.10 in 1.5 mi NNW 27.6 mph 32.2 mph N/A   Overcast
5:35 PM 15.8 °F -1.5 °F 11.1 °F 82% 30.12 in 3.0 mi NNW 20.7 mph 27.6 mph N/A   Overcast
5:55 PM 15.4 °F -1.6 °F 10.8 °F 82% 30.14 in 3.0 mi North 19.6 mph 25.3 mph N/A   Overcast
6:15 PM 15.3 °F 0.2 °F 11.3 °F 84% 30.15 in 1.8 mi NNW 15.0 mph - N/A   Overcast
6:35 PM 14.9 °F -1.3 °F 11.3 °F 86% 30.15 in 1.0 mi North 17.3 mph - N/A   Overcast
6:55 PM 14.7 °F -0.5 °F 11.5 °F 87% 30.14 in 0.8 mi North 15.0 mph - N/A   Overcast
7:15 PM 14.0 °F -3.4 °F 11.3 °F 89% 30.14 in 0.5 mi North 19.6 mph - N/A   Overcast
7:35 PM 14.0 °F -2.0 °F 11.3 °F 89% 30.15 in 0.8 mi North 16.1 mph 21.9 mph N/A   Overcast
7:55 PM 13.5 °F -3.2 °F 10.4 °F 88% 30.16 in 2.0 mi North 17.3 mph 20.7 mph N/A   Overcast
8:15 PM 13.5 °F -2.7 °F 10.4 °F 88% 30.16 in 4.0 mi North 16.1 mph - N/A   Overcast
8:35 PM 13.8 °F -4.1 °F 10.4 °F 86% 30.16 in 4.0 mi North 20.7 mph 24.2 mph N/A   Overcast
8:55 PM 14.0 °F -0.8 °F 11.1 °F 88% 30.17 in 2.5 mi NNE 13.8 mph - N/A   Overcast
9:15 PM 13.3 °F -1.8 °F 10.2 °F 88% 30.19 in 4.0 mi North 13.8 mph - N/A   Overcast
9:35 PM 12.9 °F -0.9 °F 9.5 °F 86% 30.19 in 7.0 mi North 11.5 mph - N/A   Overcast
9:55 PM 12.7 °F 1.4 °F 9.5 °F 87% 30.19 in 7.0 mi North 8.1 mph - N/A   Overcast
10:15 PM 12.0 °F 0.5 °F 9.0 °F 88% 30.17 in 4.0 mi North 8.1 mph - N/A   Overcast
10:35 PM 12.2 °F 0.7 °F 9.3 °F 88% 30.17 in 2.5 mi North 8.1 mph - N/A   Overcast
10:55 PM 12.0 °F -4.0 °F 8.4 °F 85% 30.16 in 7.0 mi North 15.0 mph 18.4 mph N/A   Scattered Clouds
11:15 PM 11.3 °F -6.0 °F 7.7 °F 85% 30.15 in 10.0 mi North 17.3 mph - N/A   Clear
11:35 PM 11.1 °F -0.6 °F 6.8 °F 83% 30.16 in 10.0 mi North 8.1 mph - N/A   Clear
11:55 PM 9.5 °F - 5.9 °F 85% 30.17 in 10.0 mi Calm Calm - N/A   Scattered Clouds